User: anonymous   Login
Location: Unspecified
(0.0000°N, 0.0000°E)
Time: 15:14:16
(UTC+00:00)
Language:

CERISE - Orbit

View from above orbital plane
View from above orbital plane
View from above satellite
View from above satellite

Ground track
Ground track

The orbit data is extracted from the following two-line orbital elements,

1 23606U 95033B   18052.17057044  .00000640  00000-0  65157-4 0  9999
2 23606  98.2860  11.2746 0004430 198.4349 161.6710 14.94520966223872
Epoch (UTC): 21 February 2018 04:05:37
Eccentricity: 0.0004430
inclination: 98.2860°
perigee height: 581 km
apogee height: 587 km
right ascension of ascending node: 11.2746°
argument of perigee: 198.4349°
revolutions per day: 14.94520966
mean anomaly at epoch: 161.6710°
orbit number at epoch: 22387

The dashed part of the orbit path shows where the satellite is in the earth's shadow,  

DLR